Location: Peterborough
(44.3091°N, 78.3197°W)
Time: 05:51:44
(UTC-04:00)

A-11 Canister half - Pass Details

Date: 22 March 2023
Orbit: 1513 x 1686 km, 47.2° (Epoch: 04 June)

Event Time Altitude Azimuth Distance (km) Brightness Sun altitude
Rises 00:30:12 0° 246° (WSW) 4,843 11.6 -43.8°
Enters shadow 00:30:21 - 246° (WSW) 4,792 11.5 -43.8°
Exits shadow 00:51:20 19° 71° (ENE) 3,279 10.7 -44.7°
Drops below altitude 10° 00:53:33 10° 71° (ENE) 3,955 11.2 -44.8°
Sets 00:56:44 0° 72° (ENE) 4,942 11.8 -44.9°
